Location: Unspecified
(0.0000°N, 0.0000°E)
Time: 21:30:54
(UTC+00:00)

SR - Pass Details

Date: 24 June 2025
Orbit: 572 x 853 km, 66.7° (Epoch: 13 July)

Event Time Altitude Azimuth Distance (km) Brightness Sun altitude
Rises 13:01:08 0° 177° (S) 3,289 ? 62.6°
Reaches altitude 10° 13:03:54 10° 164° (SSE) 2,396 ? 62.3°
Maximum altitude 13:08:27 26° 109° (ESE) 1,600 ? 61.7°
Drops below altitude 10° 13:13:05 10° 55° (NE) 2,467 ? 61.0°
Sets 13:15:58 0° 42° (NE) 3,406 ? 60.6°
